Regional Weather Roundup
Issued by NWS Charleston, WV

Home | Current Version | Previous Version | Graphics & Text | Print | Product List | Glossary On
Versions: 1 2 3 4 5 6 7 8 9 10 11 12 13 14 15 16 17 18 19 20 21 22 23 24 25 26 27
000
ASUS41 KRLX 021010
RWRRLX
West Virginia Regional Weather Roundup
National Weather Service Charleston WV
600 AM EDT MON MAY 02 2016

Note: "fair" indicates few or no clouds below 12,000 feet with no
significant weather and/or obstructions to visibility.

WVZ003-021100-
Northern Panhandle of West Virginia

CITY           SKY/WX    TMP DP  RH WIND       PRES   REMARKS
WHEELING       CLOUDY    58  56  93 MISG      29.88F
$$

WVZ009-021100-
Northwest West Virginia

CITY           SKY/WX    TMP DP  RH WIND       PRES   REMARKS
PARKERSBURG    CLOUDY    60  57  89 SW6       29.93S
$$

WVZ006-021100-
Western West Virginia

CITY           SKY/WX    TMP DP  RH WIND       PRES   REMARKS
HUNTINGTON     MOCLDY    62  59  90 VRB3      29.92R
$$

WVZ015-021100-
West Central West Virginia

CITY           SKY/WX    TMP DP  RH WIND       PRES   REMARKS
CHARLESTON     MOCLDY    62  59  90 SW5       29.93R
$$

WVZ022-031-021100-
North Central West Virginia

CITY           SKY/WX    TMP DP  RH WIND       PRES   REMARKS
CLARKSBURG     LGT RAIN  59  57  93 SE3       29.92S
MORGANTOWN     LGT RAIN  60  55  83 S8        29.92S
$$

WVZ025-035-042-045-021100-
Southern West Virginia

CITY           SKY/WX    TMP DP  RH WIND       PRES   REMARKS
BECKLEY        MOCLDY    60  58  92 SW7       30.01R
LOGAN          NOT AVBL
BLUEFIELD      CLOUDY    60  58  92 W6        30.03S
LEWISBURG      FOG       55  55 100 CALM      30.00F VSB 3/4
$$

WVZ047-021100-
Northern Mountains of West Virginia

CITY           SKY/WX    TMP DP  RH WIND       PRES   REMARKS
ELKINS         CLOUDY    58  54  86 CALM      29.94R
$$

WVZ052-021100-
Eastern Panhandle of West Virginia

CITY           SKY/WX    TMP DP  RH WIND       PRES   REMARKS
MARTINSBURG    CLOUDY    54  54 100 S3        29.93R FOG
PETERSBURG     CLOUDY    60  59  97 N7        29.95R
$$




USA.gov is the U.S. government's official web portal to all federal, state and local government web resources and services.